Location: Newark
(52.0267°N, 0.2640°W)
Time: 14:58:04
(UTC+00:00)

Envisat - Visible Passes

Search period start: 05 December 2019 00:00
Search period end: 15 December 2019 00:00
Orbit: 764 x 766 km, 98.1° (Epoch: 04 December)

Date Brightness Start Highest point End Pass type
(mag) Time Alt. Az. Time Alt. Az. Time Alt. Az.
05 Dec 5.1 06:05:47 10° NNE 06:10:12 29° E 06:14:36 10° SSE visible
05 Dec 2.9 17:25:37 10° SSE 17:30:38 65° ENE 17:35:42 10° N visible
05 Dec 5.4 19:06:14 10° SW 19:10:07 22° W 19:14:03 10° NW visible
06 Dec 6.0 05:30:05 10° NE 05:32:59 15° E 05:35:52 10° ESE visible
06 Dec 3.1 07:07:39 10° NNE 07:12:46 88° ESE 07:17:52 10° SSW visible
06 Dec 3.6 16:49:29 10° SE 16:54:03 35° ENE 16:58:38 10° N visible
06 Dec 4.2 18:28:14 10° SSW 18:33:02 42° W 18:37:51 10° NNW visible
07 Dec 4.2 06:30:59 10° NNE 06:35:54 46° E 06:40:46 10° S visible
07 Dec 3.1 17:51:02 10° SSE 17:56:06 81° WSW 18:01:15 10° NNW visible
07 Dec 6.0 19:33:28 10° WSW 19:35:59 14° W 19:38:31 10° NW visible
08 Dec 5.5 05:54:43 10° NE 05:58:49 24° E 06:02:54 10° SE visible
08 Dec 3.1 17:14:28 10° SE 17:19:24 53° ENE 17:24:22 10° N visible
08 Dec 5.1 18:54:29 10° SSW 18:58:44 26° W 19:03:01 10° NW visible
09 Dec 6.2 05:19:31 10° ENE 05:21:32 12° E 05:23:32 10° ESE visible
09 Dec 3.3 06:56:22 10° NNE 07:01:29 74° ESE 07:06:33 10° S visible
09 Dec 3.8 16:38:31 10° ESE 16:42:52 29° ENE 16:47:14 10° N visible
09 Dec 3.8 18:16:45 10° S 18:21:41 51° W 18:26:39 10° NNW visible
10 Dec 4.6 06:19:48 10° NNE 06:24:33 38° E 06:29:15 10° SSE visible
10 Dec 2.9 17:39:45 10° SSE 17:44:50 84° ENE 17:49:57 10° NNW visible
10 Dec 5.7 19:21:19 10° SW 19:24:32 17° W 19:27:47 10° NW visible
11 Dec 5.7 05:43:43 10° NE 05:47:25 20° E 05:51:05 10° SE visible
11 Dec 3.3 17:03:22 10° SE 17:08:10 44° ENE 17:13:00 10° N visible
11 Dec 4.7 18:42:49 10° SSW 18:47:21 32° W 18:51:54 10° NNW visible
12 Dec 3.7 06:45:07 10° NNE 06:50:10 60° E 06:55:12 10° S visible
12 Dec 4.0 16:27:36 10° ESE 16:31:41 25° ENE 16:35:47 10° N visible
12 Dec 3.5 18:05:20 10° S 18:10:22 62° WSW 18:15:26 10° NNW visible
13 Dec 5.0 06:08:39 10° NNE 06:13:11 31° E 06:17:40 10° SSE visible
13 Dec 2.9 17:28:31 10° SSE 17:33:34 70° ENE 17:38:38 10° N visible
13 Dec 5.5 19:09:22 10° SW 19:13:06 20° W 19:16:52 10° NW visible
14 Dec 6.0 05:32:50 10° NE 05:35:59 16° E 05:39:07 10° SE visible
14 Dec 3.0 07:10:35 10° NNE 07:15:42 86° WNW 07:20:48 10° SSW visible
14 Dec 3.5 16:52:19 10° SE 16:56:57 37° ENE 17:01:37 10° N visible
14 Dec 4.4 18:31:15 10° SSW 18:35:59 39° W 18:40:45 10° NNW visible
